Location: Baumgartsau
(48.4586°N, 14.0864°E)
Time: 02:47:42
(UTC+00:00)

Cosmos 540 Rocket - Pass Details

Date: 09 April 2020
Orbit: 741 x 753 km, 74.1° (Epoch: 04 June)

Event Time Altitude Azimuth Distance (km) Brightness Sun altitude
Rises 19:45:49 0° 341° (NNW) 3,214 7.7 -18.7°
Reaches altitude 10° 19:48:20 10° 349° (N) 2,284 6.6 -19.0°
Maximum altitude 19:53:12 40° 59° (ENE) 1,104 4.1 -19.6°
Enters shadow 19:54:29 34° 93° (E) 1,223 4.1 -19.8°
